• In Deutschland
  • Länderverzeichnis
  • Für 7 Tage
  • Wassertemperatur
  • Satellitenkarten
  • Wetterkarte
  • Widgets
  • user-avatar
    Anmelden

    Stündliche Wetter Eimeldingen

    Heute, 18 Dezember, Montag

    Zeit Temperatur Niederschläge Wind Luftdruck Luftfeuchtigkeit
    00:00 -2°C° 0 mm 2 m/S 747 mmHg 89%
    01:00 -1°C° 0 mm 2 m/S 747 mmHg 87%
    02:00 -1°C° 0,1 mm 2 m/S 746 mmHg 85%
    03:00 -1°C° 0,1 mm 3 m/S 745 mmHg 83%
    04:00 0°C° 0,1 mm 3 m/S 745 mmHg 81%
    05:00 0°C° 0,7 mm 3 m/S 744 mmHg 84%
    06:00 0°C° 0,7 mm 3 m/S 744 mmHg 87%
    07:00 -1°C° 0 mm 3 m/S 742 mmHg 90%
    08:00 0°C° 0,6 mm 3 m/S 742 mmHg 90%
    09:00 0°C° 0,6 mm 3 m/S 742 mmHg 89%
    10:00 +2°C° 0,6 mm 2 m/S 742 mmHg 89%
    11:00 +2°C° 0,3 mm 2 m/S 742 mmHg 88%
    12:00 +3°C° 0,3 mm 2 m/S 742 mmHg 88%
    13:00 +4°C° 0,3 mm 1 m/S 742 mmHg 88%
    14:00 +4°C° 0 mm 1 m/S 743 mmHg 89%
    15:00 +4°C° 0 mm 1 m/S 743 mmHg 91%
    16:00 +3°C° 0 mm 0 m/S 743 mmHg 93%
    17:00 +2°C° 0 mm 0 m/S 744 mmHg 93%
    18:00 +2°C° 0 mm 0 m/S 744 mmHg 94%
    19:00 +1°C° 0 mm 0 m/S 745 mmHg 94%
    20:00 +1°C° 0 mm 0 m/S 745 mmHg 94%
    21:00 +1°C° 0 mm 0 m/S 746 mmHg 93%
    22:00 +1°C° 0 mm 0 m/S 746 mmHg 93%
    23:00 +1°C° 0 mm 0 m/S 746 mmHg 93%

    Morgen, 19 Dezember, Dienstag

    Zeit Temperatur Niederschläge Wind Luftdruck Luftfeuchtigkeit
    00:00 +1°C° 0 mm 0 m/S 747 mmHg 93%
    01:00 +1°C° 0 mm 0 m/S 747 mmHg 93%
    02:00 +1°C° 0 mm 0 m/S 747 mmHg 93%
    03:00 +1°C° 0 mm 0 m/S 748 mmHg 93%
    04:00 +1°C° 0 mm 0 m/S 748 mmHg 93%
    05:00 +1°C° 0 mm 0 m/S 749 mmHg 93%
    06:00 +1°C° 0 mm 0 m/S 749 mmHg 93%
    07:00 +1°C° 0 mm 0 m/S 750 mmHg 93%
    08:00 +1°C° 0 mm 0 m/S 750 mmHg 92%
    09:00 +2°C° 0 mm 0 m/S 750 mmHg 91%
    10:00 +2°C° 0 mm 0 m/S 751 mmHg 90%
    11:00 +4°C° 0 mm 1 m/S 751 mmHg 88%
    12:00 +4°C° 0 mm 1 m/S 751 mmHg 87%
    13:00 +5°C° 0 mm 1 m/S 750 mmHg 85%
    14:00 +4°C° 0 mm 1 m/S 751 mmHg 87%
    15:00 +4°C° 0 mm 1 m/S 751 mmHg 89%
    16:00 +4°C° 0 mm 1 m/S 751 mmHg 91%
    17:00 +3°C° 0 mm 1 m/S 751 mmHg 92%
    18:00 +3°C° 0 mm 1 m/S 752 mmHg 93%
    19:00 +1°C° 0 mm 0 m/S 752 mmHg 93%
    20:00 +1°C° 0,1 mm 0 m/S 752 mmHg 93%
    21:00 +1°C° 0,1 mm 0 m/S 752 mmHg 93%
    22:00 +1°C° 0,1 mm 0 m/S 752 mmHg 92%
    23:00 +1°C° 0,1 mm 0 m/S 752 mmHg 92%

    übermorgen, 20 Dezember, Mittwoch

    Zeit Temperatur Niederschläge Wind Luftdruck Luftfeuchtigkeit
    00:00 +1°C° 0,1 mm 0 m/S 752 mmHg 92%
    01:00 +1°C° 0,1 mm 0 m/S 752 mmHg 92%
    02:00 +2°C° 0,2 mm 1 m/S 752 mmHg 92%
    03:00 +2°C° 0,2 mm 1 m/S 752 mmHg 92%
    04:00 +2°C° 0,2 mm 1 m/S 751 mmHg 92%
    05:00 +3°C° 0,3 mm 1 m/S 751 mmHg 92%
    06:00 +3°C° 0,3 mm 1 m/S 751 mmHg 93%
    07:00 +3°C° 0,3 mm 1 m/S 751 mmHg 93%
    08:00 +3°C° 0,5 mm 1 m/S 751 mmHg 93%
    09:00 +3°C° 0,5 mm 1 m/S 751 mmHg 93%
    10:00 +4°C° 0,5 mm 1 m/S 751 mmHg 92%
    11:00 +4°C° 0,5 mm 1 m/S 750 mmHg 93%
    12:00 +4°C° 0,5 mm 1 m/S 750 mmHg 93%
    13:00 +4°C° 0,5 mm 1 m/S 750 mmHg 93%
    14:00 +4°C° 0,4 mm 1 m/S 750 mmHg 94%
    15:00 +4°C° 0,4 mm 1 m/S 750 mmHg 94%
    16:00 +4°C° 0,4 mm 1 m/S 749 mmHg 95%
    17:00 +4°C° 0,6 mm 1 m/S 750 mmHg 95%
    18:00 +4°C° 0,6 mm 1 m/S 750 mmHg 95%
    19:00 +4°C° 0,6 mm 1 m/S 750 mmHg 95%
    20:00 +4°C° 0,4 mm 1 m/S 750 mmHg 96%
    21:00 +4°C° 0,4 mm 1 m/S 751 mmHg 96%
    22:00 +4°C° 0,4 mm 1 m/S 751 mmHg 96%
    23:00 +5°C° 0,1 mm 1 m/S 751 mmHg 96%

    21 Dezember, Donnerstag

    Zeit Temperatur Niederschläge Wind Luftdruck Luftfeuchtigkeit
    00:00 +5°C° 0,1 mm 1 m/S 751 mmHg 96%
    01:00 +5°C° 0,1 mm 1 m/S 751 mmHg 96%
    02:00 +5°C° 0,1 mm 1 m/S 751 mmHg 96%
    03:00 +5°C° 0,1 mm 1 m/S 751 mmHg 96%
    04:00 +5°C° 0,1 mm 1 m/S 751 mmHg 96%
    05:00 +5°C° 0,1 mm 1 m/S 751 mmHg 96%
    06:00 +5°C° 0,1 mm 1 m/S 751 mmHg 96%
    07:00 +5°C° 0,1 mm 1 m/S 751 mmHg 96%
    08:00 +6°C° 0 mm 1 m/S 751 mmHg 96%
    09:00 +6°C° 0 mm 1 m/S 752 mmHg 96%
    10:00 +6°C° 0 mm 1 m/S 752 mmHg 97%
    11:00 +7°C° 0,1 mm 1 m/S 751 mmHg 96%
    12:00 +7°C° 0,1 mm 1 m/S 751 mmHg 96%
    13:00 +8°C° 0,1 mm 1 m/S 751 mmHg 96%
    14:00 +6°C° 0,2 mm 2 m/S 751 mmHg 96%
    15:00 +6°C° 0,2 mm 2 m/S 751 mmHg 96%
    16:00 +6°C° 0,2 mm 2 m/S 751 mmHg 97%
    17:00 +6°C° 0,8 mm 2 m/S 751 mmHg 97%
    18:00 +6°C° 0,8 mm 2 m/S 751 mmHg 96%
    19:00 +6°C° 0,8 mm 2 m/S 751 mmHg 96%
    20:00 +6°C° 0,8 mm 2 m/S 751 mmHg 96%
    21:00 +6°C° 0,8 mm 2 m/S 751 mmHg 97%
    22:00 +6°C° 0,8 mm 2 m/S 752 mmHg 97%
    23:00 +6°C° 0,2 mm 2 m/S 752 mmHg 97%

    22 Dezember, Freitag

    Zeit Temperatur Niederschläge Wind Luftdruck Luftfeuchtigkeit
    00:00 +6°C° 0,2 mm 2 m/S 752 mmHg 97%
    01:00 +7°C° 0,2 mm 1 m/S 752 mmHg 97%
    02:00 +7°C° 0,3 mm 1 m/S 751 mmHg 97%
    03:00 +7°C° 0,3 mm 1 m/S 751 mmHg 97%
    04:00 +7°C° 0,3 mm 1 m/S 751 mmHg 97%
    05:00 +7°C° 0,2 mm 1 m/S 751 mmHg 97%
    06:00 +7°C° 0,2 mm 1 m/S 751 mmHg 97%
    07:00 +7°C° 0,2 mm 1 m/S 751 mmHg 96%
    08:00 +7°C° 0,1 mm 1 m/S 752 mmHg 97%
    09:00 +7°C° 0,1 mm 1 m/S 752 mmHg 97%
    10:00 +8°C° 0,1 mm 1 m/S 752 mmHg 97%
    11:00 +8°C° 0,1 mm 1 m/S 752 mmHg 96%
    12:00 +9°C° 0,1 mm 1 m/S 751 mmHg 95%
    13:00 +9°C° 0,1 mm 1 m/S 751 mmHg 95%
    14:00 +9°C° 0,1 mm 1 m/S 751 mmHg 95%
    15:00 +9°C° 0,1 mm 1 m/S 751 mmHg 96%
    16:00 +8°C° 0,1 mm 1 m/S 751 mmHg 97%
    17:00 +8°C° 0 mm 1 m/S 751 mmHg 97%
    18:00 +8°C° 0 mm 1 m/S 752 mmHg 97%
    19:00 +7°C° 0 mm 1 m/S 752 mmHg 97%
    20:00 +7°C° 0 mm 1 m/S 752 mmHg 97%
    21:00 +6°C° 0 mm 0 m/S 752 mmHg 97%
    22:00 +6°C° 0 mm 0 m/S 752 mmHg 97%
    23:00 +5°C° 0 mm 0 m/S 752 mmHg 97%

    23 Dezember, Samstag

    Zeit Temperatur Niederschläge Wind Luftdruck Luftfeuchtigkeit
    00:00 +5°C° 0 mm 0 m/S 752 mmHg 96%
    01:00 +5°C° 0 mm 0 m/S 752 mmHg 96%
    02:00 +4°C° 0 mm 0 m/S 752 mmHg 96%
    03:00 +4°C° 0 mm 0 m/S 752 mmHg 95%
    04:00 +4°C° 0 mm 0 m/S 752 mmHg 95%
    05:00 +3°C° 0 mm 0 m/S 752 mmHg 94%
    06:00 +3°C° 0 mm 0 m/S 752 mmHg 93%
    07:00 +3°C° 0 mm 0 m/S 752 mmHg 93%
    08:00 +3°C° 0 mm 0 m/S 752 mmHg 91%
    09:00 +4°C° 0 mm 0 m/S 752 mmHg 90%
    10:00 +4°C° 0 mm 0 m/S 752 mmHg 88%
    11:00 +5°C° 0 mm 0 m/S 752 mmHg 86%
    12:00 +6°C° 0 mm 0 m/S 751 mmHg 85%
    13:00 +7°C° 0 mm 0 m/S 751 mmHg 83%
    14:00 +6°C° 0 mm 0 m/S 751 mmHg 85%
    15:00 +6°C° 0 mm 0 m/S 750 mmHg 87%
    16:00 +5°C° 0 mm 0 m/S 750 mmHg 89%
    17:00 +4°C° 0 mm 0 m/S 750 mmHg 89%
    18:00 +4°C° 0 mm 0 m/S 750 mmHg 89%
    19:00 +3°C° 0 mm 0 m/S 750 mmHg 89%
    20:00 +2°C° 0 mm 0 m/S 750 mmHg 89%
    21:00 +2°C° 0 mm 0 m/S 750 mmHg 88%
    22:00 +2°C° 0 mm 0 m/S 750 mmHg 88%
    23:00 +2°C° 0 mm 0 m/S 749 mmHg 88%
    Mehr zeigen